{"data":{"norad_id":58167,"intl_designator":"2023-166T","name":"STARLINK-30811","alt_names":[],"object_type":"PAYLOAD","status":"ACTIVE","operator":null,"country":"US","launch_date":"2023-10-29","launch_site_code":"AFWTR","launch_vehicle":null,"mission":null,"orbit_class":"UNKNOWN","rcs_meters":null,"size_class":null,"mass_kg":null,"dimensions":null,"purposes":["comms"],"wikipedia_slug":null,"has_3d_model":false,"image_url":null,"decayed_at":null,"tle_current":{"epoch":"2026-05-24T15:12:43.448544Z","epoch_age_seconds":110193,"freshness":"FRESH","line1":"1 58167U 23166T   26144.63383621  .00000764  00000+0  36367-4 0  9999","line2":"2 58167  53.1597 226.3713 0000814  76.9872 283.1220 15.31706507144669","mean_motion":15.31706507,"eccentricity":8.14e-5,"inclination_deg":53.1597,"raan_deg":226.3713,"arg_perigee_deg":76.9872,"mean_anomaly_deg":283.122,"bstar":3.6367e-5,"rev_number":14466,"period_min":94.012788573993,"perigee_km":470.16310125741,"apogee_km":471.27809527441,"semimajor_km":6848.8575982659,"source":"CELESTRAK","updated_at":"2026-05-25T13:38:18.564843Z"}}}